Other Surface Observations
Issued by NWS Upton, NY

Home | Current Version | Previous Version | Text Only | Print | Product List | Glossary On
Versions: 1 2 3 4 5 6 7 8 9 10 11 12 13 14 15 16 17 18 19 20 21 22 23 24 25 26 27 28 29 30 31 32 33 34 35 36 37 38 39 40 41 42 43 44 45 46 47 48 49 50
753
SXUS51 KOKX 270857
OSOOKX
New York City Metropolitan Area Weather Roundup
National Weather Service New York NY
500 AM EDT FRI APR 27 2018

CITY           SKY/WX    TMP DP  RH WIND       PRES   REMARKS
Central Park   FAIR      57  41  55 NE3       29.87F
LaGuardia Arpt MOCLDY    53  43  68 NE9       29.85S
Kennedy Intl   CLOUDY    53  46  77 E5        29.86S
Newark Liberty MOCLDY    58  43  57 E6        29.84F
Teterboro Arpt FAIR      55  43  63 N6        29.84F
Bronx Bot Gard   N/A     54  39  58 E2        29.85F
Bronx Lehman C   N/A     55  41  58 E7          N/A
Queens College   N/A     55  41  58 E7          N/A
Breezy Point     N/A     50 N/A N/A E5          N/A
Brooklyn Coll    N/A     57  43  58 E3          N/A
Staten Island    N/A     57  41  54 E7          N/A

>>>>>>>>>>>>>>>>>>>>>>>>>>>>>>>>> KEY <<<<<<<<<<<<<<<<<<<<<<<<<<<<<<<
> SKY/WX - Sky Condition/Present    : R : WCI - Wind Chill Index    <
>          Weather                  : E : VSB - Visibility in Miles <
> TMP    - Temperature in Deg F     : M : HX  - Heat Index          <
> DP     - Dew Point Temperature    : A : TC  - Temperature in      <
> RH     - Relative Humidity        : R :       Celsius             <
> WIND   - Direction/Speed (mph)    : K : VRB - Variable Wind Dir   <
> PRES   - Pressure (in Hg)         : S :                           <
>>>>>>>>>>>>>>>>>>>>>>>>>>>>>>>>> KEY <<<<<<<<<<<<<<<<<<<<<<<<<<<<<<<




USA.gov is the U.S. government's official web portal to all federal, state and local government web resources and services.